Location: Maddington
(51.2000°N, 1.9167°W)
Time: 23:29:04
(UTC+00:00)

Iridium 4 Rocket - Pass Details

Date: 18 September 2020
Orbit: 584 x 905 km, 86.9° (Epoch: 30 October)

Event Time Altitude Azimuth Distance (km) Brightness Sun altitude
Rises 19:21:40 0° 196° (SSW) 3,081 6.6 -11.2°
Reaches altitude 10° 19:23:54 10° 201° (SSW) 2,215 5.9 -11.6°
Maximum altitude 19:28:46 55° 279° (W) 936 4.4 -12.3°
Drops below altitude 10° 19:34:08 10° 357° (N) 2,439 6.4 -13.1°
Sets 19:36:42 0° 2° (N) 3,421 7.1 -13.5°
